Location: Bayview
(38.0070°N, 122.3188°W)
Time: 14:00:26
(UTC+00:00)

USA 238 DEB - Pass Details

Date: 29 June 2022
Orbit: 966 x 1246 km, 63.4° (Epoch: 13 August)

Event Time Altitude Azimuth Distance (km) Brightness Sun altitude
Exits shadow 12:12:17 - 244° (WSW) 2,938 5.4 -6.9°
Reaches altitude 10° 12:12:54 10° 246° (WSW) 2,736 5.2 -6.8°
Maximum altitude 12:18:47 37° 313° (NW) 1,519 4.5 -5.9°
Drops below altitude 10° 12:25:01 10° 20° (NNE) 2,892 6.9 -4.9°
Sets 12:28:00 0° 28° (NNE) 3,895 7.9 -4.4°
